McConnell AFB, KS

9:01 AM CST on December 09, 2019 (GMT -0600)
McConnell Air Force Base

Weather History for KIAB - November, 2019

Change the Weather History Date:

Wednesday, November 13, 2019

  Actual Average Record
Temperature  
Mean Temperature 38 °F -  
Max Temperature 50 °F 55 °F 80 °F (1999)
Min Temperature 25 °F 36 °F 13 °F (2018)
Degree Days  
Heating Degree Days 28    
Moisture  
Dew Point 15 °F    
Average Humidity 42    
Maximum Humidity 53    
Minimum Humidity 28    
Precipitation  
Precipitation 0.00 in - - ()
Sea Level Pressure  
Sea Level Pressure 30.08 in    
Wind  
Wind Speed 15 mph ()    
Max Wind Speed 24 mph    
Max Gust Speed 32 mph    
Visibility 10.0 miles    
Events      
Averages and records for this station are not official NWS values.
T = Trace of Precipitation, MM = Missing Value Source: Averaged Metar Reports

Daily Weather History Graph

Daily Weather History Graph

Search for Another Location

Airport or City:

Astronomy

Nov. 13, 2019 Rise Set
Actual Time 7:06 AM CST 5:19 PM CST
Civil Twilight 6:38 AM CST 5:47 PM CST
Nautical Twilight 6:07 AM CST 6:18 PM CST
Astronomical Twilight 5:36 AM CST 6:49 PM CST
Moon 6:24 PM CST (11/13) 8:00 AM CST (11/13)
Length of Visible Light 11h 08m
Length of Day
10h 13m
Full, 99% of the Moon is Illuminated
Nov 13
Full
Nov 19
Last Quarter
Nov 26
New
Dec 4
First Quarter
Dec 11
Full

Hourly Weather History & Observations

Time (CST) Temp. Windchill Dew Point Humidity Pressure Visibility Wind Dir Wind Speed Gust Speed Precip Events Conditions
1:56 AM 25.0 °F 10.6 °F 9.0 °F 51% 30.14 in 10.0 mi SSE 20.7 mph - N/A   Clear
2:56 AM 25.0 °F 10.9 °F 9.3 °F 52% 30.12 in 10.0 mi SSE 19.6 mph 26.5 mph N/A   Clear
3:56 AM 25.9 °F 11.4 °F 9.3 °F 50% 30.10 in 10.0 mi SSE 21.9 mph - N/A   Clear
4:56 AM 25.9 °F 12.5 °F 9.9 °F 51% 30.08 in 10.0 mi SSE 18.4 mph - N/A   Clear
5:56 AM 26.2 °F 11.9 °F 10.0 °F 50% 30.07 in 10.0 mi SE 21.9 mph 28.8 mph N/A   Clear
6:56 AM 25.7 °F 11.2 °F 10.4 °F 52% 30.07 in 10.0 mi SSE 21.9 mph - N/A   Clear
7:56 AM 26.2 °F 12.6 °F 10.9 °F 52% 30.08 in 10.0 mi SSE 19.6 mph - N/A   Clear
8:56 AM 30.4 °F 16.7 °F 11.5 °F 45% 30.05 in 10.0 mi SSE 24.2 mph 32.2 mph N/A   Clear
9:56 AM 35.6 °F 24.0 °F 12.6 °F 39% 30.04 in 10.0 mi SSE 23.0 mph 31.1 mph N/A   Clear
10:56 AM 41.5 °F 31.6 °F 13.1 °F 31% 30.03 in 10.0 mi South 24.2 mph 31.1 mph N/A   Clear
12:56 PM 48.7 °F - 17.1 °F 28% 29.98 in 10.0 mi South 18.4 mph 29.9 mph N/A   Clear
1:56 PM 48.9 °F - 18.0 °F 29% 29.98 in 10.0 mi South 19.6 mph 26.5 mph N/A   Partly Cloudy
3:56 PM 50.9 °F - 18.9 °F 28% 30.01 in 10.0 mi SSW 11.5 mph - N/A   Clear
4:56 PM 48.6 °F - 18.5 °F 30% 30.04 in 10.0 mi SW 5.8 mph - N/A   Clear
5:56 PM 46.6 °F - 18.3 °F 32% 30.06 in 10.0 mi Calm Calm - N/A   Partly Cloudy
6:56 PM 42.4 °F - 18.0 °F 37% 30.09 in 10.0 mi Calm Calm - N/A   Clear
7:56 PM 39.7 °F 35.6 °F 18.5 °F 42% 30.13 in 10.0 mi NW 5.8 mph - N/A   Partly Cloudy
9:56 PM 38.3 °F 34.8 °F 18.9 °F 46% 30.16 in 10.0 mi ENE 4.6 mph - N/A   Clear
10:56 PM 35.8 °F 28.3 °F 19.4 °F 51% 30.19 in 10.0 mi North 10.4 mph - N/A   Clear
11:56 PM 36.0 °F 30.3 °F 20.5 °F 53% 30.19 in 10.0 mi North 6.9 mph - N/A   Clear